Погода в Канино

Россия / Рязанская область     53°56′24″N   40°29′26″E
темп.,
°C
ветер,
м/с
пор.,
м/с
влажн.,
%
обл.,
%
осадки,
мм/ч
давл.,
гПа
погр.,
м
26 июля, пн
пн2600:00+16ююв125325 0.0 102313
03:00+14юз11599 0.0 102311
06:00+16ю11643 0.0 102431
09:00+21юз224870 0.0 1023580
12:00+25ююз333811 0.0 10231652
15:00+25юз2338100 0.0 10222104
18:00+23юз1247100 0.0 102144
21:00+20сз115082 0.0 102116
27 июля, вт
вт2700:00+19зсз225387 0.0 102219
03:00+17зсз22595 0.0 102211
06:00+18зсз22658 0.0 102240
09:00+23зсз225013 0.0 1021436
12:00+27зсз243824 0.0 10202493
15:00+28ссз353454 0.0 10192525
18:00+25зсз4749100 0.0 1018346
21:00+19зюз34630 0.1 101854
28 июля, ср
ср2800:00+16зсз239023 0.0 101930
03:00+16з2291100 0.0 101823
06:00+18зюз23825 0.0 101884
09:00+24зюз225715 0.0 1017555
12:00+28зюз33419 0.0 10161701
15:00+26юз5747100 0.1 1014415
18:00+20зсз347629 1.8 1014195
21:00+19юв347594 1.8 101356
29 июля, чт
чт2900:00+19ююв397799 0.1 1011169
03:00+19ююз6157763 0.1 1010505
06:00+18ююз510835 0.3 1008321
09:00+23зюз686962 0.3 10071059
12:00+25зсз795839 0.0 10071433
15:00+26зсз695369 0.1 10071666
18:00+26сз5105699 0.0 10071315
21:00+21юз227418 0.0 100711
30 июля, пт
пт3000:00+20юз3371100 0.0 100738
03:00+20юз3372100 0.0 100746
06:00+20з246851 0.0 100794
09:00+25з22535 0.0 1007679
12:00+29зюз234396 0.0 10072197
15:00+25юз2260100 0.3 100726
18:00+27ююз335296 0.0 1006620
21:00+22юз337199 0.0 100750